Regional Weather Roundup
Issued by NWS San Diego, CA

Home | Current Version | Previous Version | Text Only | Print | Product List | Glossary On
Versions: 1 2 3 4 5 6 7 8 9 10 11 12 13 14 15 16 17 18 19 20 21 22 23 24 25 26 27 28 29 30 31 32 33 34 35 36 37 38 39 40 41 42 43 44 45 46 47 48 49 50
000
ASUS46 KSGX 091211
RWRSGX

SAN DIEGO HOURLY WEATHER ROUNDUP
NATIONAL WEATHER SERVICE SAN DIEGO CA
400 AM PST TUE FEB 09 2016

NOTE: "FAIR" INDICATES FEW OR NO CLOUDS BELOW 12,000 FEET WITH NO
SIGNIFICANT WEATHER AND/OR OBSTRUCTIONS TO VISIBILITY.

CAZ042-043-060-061-PZZ750-775-091300-

GREATER SAN DIEGO AREA

CITY           SKY/WX    TMP DP  RH WIND       PRES   REMARKS
LINDBERGH FLD  CLEAR     60  29  30 CALM      30.11S
NATIONAL CITY    N/A    N/A N/A N/A CALM      30.10S
CHULA VISTA      N/A     52  36  54 CALM      30.02S
IMPERIAL BEACH CLEAR     57  34  41 N10       30.10R
BROWN FIELD    CLEAR     61  24  24 E13       30.10S
MIRAMAR MCAS   CLEAR     57  30  35 CALM      30.10S
MONTGOMERY FLD CLEAR     53  32  44 VRB3      30.11S

$$

NORTH SAN DIEGO COUNTY

CITY           SKY/WX    TMP DP  RH WIND       PRES   REMARKS
CAMP PENDLETON CLEAR     50  31  48 CALM      30.10S
OCEANSIDE AP   CLEAR     52  29  41 NE6       30.10S
OCEANSIDE HBR    N/A     58  31  36 NE8       30.12R
VISTA            N/A     58  29  33 CALM      30.10S
CARLSBAD       CLEAR     58  27  30 CALM      30.10R
DEL MAR          N/A     61  30  31 CALM      30.12S
FALLBROOK        N/A     67  27  22 E9        30.11S
ESCONDIDO        N/A     52  32  46 CALM      30.11S
SAN MARCOS       N/A     58  30  33 CALM      30.08S
POWAY            N/A     47  33  57 CALM      30.12R

$$

EAST SAN DIEGO COUNTY

CITY           SKY/WX    TMP DP  RH WIND       PRES   REMARKS
RAMONA         CLEAR     44  30  57 CALM      30.13S
SANTEE LAKES     N/A     46  35  64 CALM      30.11S
LA MESA          N/A     62  27  27 CALM      30.04R
JAMUL            N/A     56  28  34 CALM      30.11S
DESCANSO N       N/A     65  19  17 E12       30.00F
MT. LAGUNA OBS   N/A     50  16  25 E15       29.85F
CAMPO            N/A     50  22  33 CALM      30.15F

$$

ORANGE COUNTY AND THE LOS ANGELES BASIN

CITY           SKY/WX    TMP DP  RH WIND       PRES   REMARKS
JOHN WAYNE AP  CLEAR     56  34  43 CALM      30.09F
LAGUNA BEACH     N/A     49  32  52 NW1       30.05F
LAKE FOREST FR   N/A     64  19  17 CALM      29.98R
HUNTINGTON BCH   N/A     50  37  60 CALM      30.11F
LOS ALAMITOS   FAIR      55  31  40 N5        30.10S
FULLERTON      CLEAR     56  33  42 N3        30.09F
LONG BEACH     CLEAR     57  33  40 NW5       30.10F
L.A. AP        CLEAR     63  26  24 NE3       30.11F
L.A. DOWNTOWN  CLEAR     56  32  40 N3        30.11F

$$

THE INLAND EMPIRE

CITY           SKY/WX    TMP DP  RH WIND       PRES   REMARKS
CORONA         CLEAR     71  26  18 SE13      30.14F
CHINO          CLEAR     55  30  38 CALM      30.15S
ONTARIO        CLEAR     58  25  28 N3        30.14F
RIVERSIDE AP   CLEAR     61  25  25 E6        30.16S
MORENO VALLEY    N/A     59  31  34 CALM      28.29S
MARCH ARB      CLEAR     49  25  38 NW7       30.18S
HORSETHIEF CYN   N/A     63  20  19 NW9       30.19S
PERRIS           N/A     56  30  37 NE2       30.21S
HEMET EAST       N/A     59  15  18 CALM      30.04F
FRENCH VALLEY  FAIR      46  30  53 NE6       30.18R
TEMECULA         N/A     51  34  53 W2        30.13S

$$

SAN BERNARDINO AND RIVERSIDE COUNTY MOUNTAINS

CITY           SKY/WX    TMP DP  RH WIND       PRES   REMARKS
BIG BEAR AP    CLEAR     23  18  80 CALM      30.45S
ANGELUS OAKS     N/A     45  20  37 CALM      30.16F
PINE COVE        N/A     58   2  10 CALM      30.15F

$$

SOUTHERN DESERT INCLUDING THE COACHELLA VALLEY

CITY           SKY/WX    TMP DP  RH WIND       PRES   REMARKS
PALM SPRINGS   CLEAR     67  24  19 SW8       30.20S
THOUSAND PALMS   N/A     59  26  28 N3        30.16S
PALM DESERT      N/A     55  35  46 CALM      31.25S
THERMAL        CLEAR     48  27  44 N3        30.14S
BLYTHE         CLEAR     59  27  29 NE6       30.19S
IMPERIAL AP    CLEAR     51  26  37 W8        30.14S
EL CENTRO NAS  CLEAR     49  22  34 W8        30.16S
YUMA AZ        CLEAR     61  26  26 N7        30.13

$$

UPPER DESERT

CITY           SKY/WX    TMP DP  RH WIND       PRES   REMARKS
VICTORVILLE AP CLEAR     37  21  52 CALM      30.32S
HESPERIA         N/A     41  26  55 CALM      30.46F
APPLE VALLEY     N/A     37  24  60 CALM      30.34S
PALMDALE       CLEAR     39  24  55 W5        30.33S
LANCASTER      CLEAR     35  25  66 W3        30.33S
EDWARDS AFB    CLEAR     36  23  59 CALM      30.31R
DAGGETT        CLEAR     41  24  51 W6        30.32S
29 PALMS N     CLEAR     48  22  35 W7        30.36S
NEEDLES        CLEAR     63  27  25 N15       30.25S

$$

REGIONAL REPORTS

CITY           SKY/WX    TMP DP  RH WIND       PRES   REMARKS
SANTA BARBARA  CLEAR     46  37  71 CALM      30.11S
SANDBERG       CLEAR     56  21  25 E30G36    30.33R
LAS VEGAS NV   CLEAR     48  27  44 SW3       30.33S
PHOENIX AZ     CLEAR     62  25  24 E9        30.16R
TIJUANA        CLEAR     64  18  16 CALM      30.13
ENSENADA NW      N/A     70  32  24 E1        30.06S

$$

OFFSHORE ISLANDS

CITY           SKY/WX    TMP DP  RH WIND       PRES   REMARKS
CATALINA ARPT  CLEAR     70  16  12 NE7       30.16F
SAN NICOLAS IS CLEAR    N/A N/A N/A CALM      30.11S

$$

MARINE AND OFFSHORE BUOY REPORTS

STATION/POSITION SKY/WX   TEMP    WIND        PRES    SWELL
                          AIR SEA DIR/SP/G            HT/PER/DIR
                          (F)     (DEG/KT/KT) (MB)    (FT/S/D)
TANNER BANKS               60 60  310/  4/  6 1019.0S   5/300/16
S CLEMENTE BASIN           62 61  320/  4/  6 1018.7F   3/290/17
SAN NICOLAS IS.               58                N/A     5/300/15
SO. S. ROSA ISLA           61 58              1018.8F
W. S. BARBARA CH           63 57  350/  4/  6 1019.4S   5/290/15
M. S. BARBARA CH           59 57  330/  6/  6 1020.1F
S. MONICA BASIN            63 59  140/  4/  4 1019.5F   2/250/16
S PEDRO CHANNEL               60                N/A     2/270/17
DANA POINT                    61                N/A     2/270/17
OCEANSIDE OFFSHR              60                N/A     2/230/13
TORREY PINES OTR              60                N/A     2/280/17
LA JOLLA 1                 66 59   90/  2/  3 1019.0F
SAN DIEGO BAY                 61              1019.6F
POINT LOMA SOUTH              60                N/A     3/280/17

$$




USA.gov is the U.S. government's official web portal to all federal, state and local government web resources and services.